Powrót do katalogu

STARLINK-34611

AktywnyŁącznośćVLEO
NORAD 64918·PAYLOAD·🇺🇸 United States

Wystrzelony Jul 26, 2025 z Cape Canaveral Space Force Station

Loading…

Następne Przeloty (najbliższe 24 godziny)

TLE

ŚwieżeSource: CelesTrak SupGP

Epoka: Sep 14, 2026, 23:04 UTC

1 64918C 25157Q   26257.96159722 -.00044094  00000+0 -13023-2 0  2571
2 64918  53.1588 183.2863 0001299  82.1170  67.9258 15.34424708    17

Śledź STARLINK-34611 w czasie rzeczywistym z AllMySat

Download on the App Store